Manor / Austin Executive, TX

9:16 PM CST on December 11, 2019 (GMT -0600)
Manor / Austin Executive

Weather History for KEDC - October, 2019

Change the Weather History Date:

Monday, October 21, 2019

  Actual Average (WUND) Record (WUND)
Temperature  
Mean Temperature 68 °F -  
Max Temperature 78 °F - - (-1)
Min Temperature 57 °F - - (-1)
Cooling Degree Days 2    
Growing Degree Days 18 (Base 50)    
Moisture  
Dew Point 47 °F    
Average Humidity 52    
Maximum Humidity 100    
Minimum Humidity 19    
Precipitation  
Precipitation 0.32 in - - ()
Sea Level Pressure  
Sea Level Pressure 29.89 in    
Wind  
Wind Speed 11 mph (NNE)    
Max Wind Speed 29 mph    
Max Gust Speed 38 mph    
Visibility 9 miles    
Events Rain    
Averages and records for this station are not official NWS values.
T = Trace of Precipitation, MM = Missing Value Source: NWS Daily Summary

Daily Weather History Graph

Daily Weather History Graph

Search for Another Location

Airport or City:

Astronomy

Oct. 21, 2019 Rise Set
Actual Time 7:36 AM CDT 6:52 PM CDT
Civil Twilight 7:12 AM CDT 7:17 PM CDT
Nautical Twilight 6:43 AM CDT 7:45 PM CDT
Astronomical Twilight 6:16 AM CDT 8:13 PM CDT
Moon 12:20 AM CDT (10/21) 2:41 PM CDT (10/21)
Length of Visible Light 12h 05m
Length of Day
11h 16m
Waning Gibbous, 48% of the Moon is Illuminated
Oct 21
Waning Gibbous
Oct 27
New
Nov 4
First Quarter
Nov 12
Full
Nov 19
Last Quarter

Hourly Weather History & Observations

Time (CDT) Temp. Dew Point Humidity Pressure Visibility Wind Dir Wind Speed Gust Speed Precip Events Conditions
12:15 AM 78.8 °F 73.4 °F 83% 29.72 in 10.0 mi South 11.5 mph 19.6 mph N/A   Overcast
12:35 AM 77.0 °F 73.4 °F 89% 29.72 in 10.0 mi SSW 10.4 mph 18.4 mph N/A   Mostly Cloudy
1:15 AM 77.0 °F 73.4 °F 89% 29.70 in 10.0 mi SSW 10.4 mph 17.3 mph N/A   Mostly Cloudy
1:35 AM 77.0 °F 73.4 °F 89% 29.71 in 10.0 mi SSW 12.7 mph 16.1 mph N/A   Mostly Cloudy
1:55 AM 77.0 °F 73.4 °F 89% 29.72 in 10.0 mi SSW 11.5 mph 18.4 mph N/A   Overcast
2:15 AM 77.0 °F 73.4 °F 89% 29.72 in 10.0 mi SSW 13.8 mph - N/A   Overcast
2:35 AM 77.0 °F 73.4 °F 89% 29.70 in 10.0 mi SSW 11.5 mph - N/A   Mostly Cloudy
2:55 AM 77.0 °F 73.4 °F 89% 29.71 in 9.0 mi SSW 11.5 mph 16.1 mph N/A   Mostly Cloudy
3:15 AM 77.0 °F 68.0 °F 74% 29.75 in 9.0 mi NW 23.0 mph 31.1 mph N/A   Overcast
3:35 AM 66.2 °F 64.4 °F 94% 29.76 in 1.8 mi WNW 28.8 mph 38.0 mph 0.10 in Rain Rain
3:55 AM 64.4 °F 62.6 °F 94% 29.78 in 1.8 mi WNW 11.5 mph 26.5 mph 0.32 in Rain Rain
4:15 AM 64.4 °F 62.6 °F 94% 29.76 in 10.0 mi WNW 8.1 mph - N/A   Overcast
4:35 AM 64.4 °F 64.4 °F 100% 29.75 in 10.0 mi West 4.6 mph - N/A Rain Light Rain
4:55 AM 66.2 °F 62.6 °F 88% 29.75 in 10.0 mi NNW 4.6 mph - N/A   Mostly Cloudy
5:15 AM 66.2 °F 62.6 °F 88% 29.78 in 10.0 mi North 6.9 mph - N/A   Overcast
5:35 AM 66.2 °F 62.6 °F 88% 29.79 in 10.0 mi NNW 10.4 mph - N/A   Overcast
5:55 AM 66.2 °F 62.6 °F 88% 29.79 in 10.0 mi North 11.5 mph - N/A   Overcast
6:15 AM 66.2 °F 62.6 °F 88% 29.80 in 10.0 mi North 9.2 mph - N/A   Scattered Clouds
6:35 AM 66.2 °F 62.6 °F 88% 29.81 in 10.0 mi North 15.0 mph 19.6 mph N/A   Partly Cloudy
6:55 AM 66.2 °F 55.4 °F 68% 29.81 in 10.0 mi North 16.1 mph 20.7 mph N/A   Mostly Cloudy
7:15 AM 66.2 °F 53.6 °F 64% 29.82 in 10.0 mi North 10.4 mph - N/A   Mostly Cloudy
7:35 AM 64.4 °F 53.6 °F 68% 29.82 in 10.0 mi North 11.5 mph - N/A   Scattered Clouds
7:55 AM 64.4 °F 51.8 °F 64% 29.84 in 10.0 mi North 11.5 mph - N/A   Clear
8:15 AM 64.4 °F 50.0 °F 59% 29.86 in 10.0 mi North 12.7 mph - N/A   Clear
8:35 AM 64.4 °F 48.2 °F 56% 29.87 in 10.0 mi North 13.8 mph - N/A   Clear
8:55 AM 64.4 °F 46.4 °F 52% 29.88 in 10.0 mi North 15.0 mph - N/A   Clear
9:15 AM 66.2 °F 44.6 °F 46% 29.89 in 10.0 mi North 16.1 mph 21.9 mph N/A   Clear
9:35 AM 66.2 °F 46.4 °F 49% 29.91 in 10.0 mi North 18.4 mph - N/A   Clear
9:55 AM 66.2 °F 41.0 °F 40% 29.92 in 10.0 mi North 16.1 mph 23.0 mph N/A   Clear
10:15 AM 68.0 °F 41.0 °F 37% 29.93 in 10.0 mi North 12.7 mph - N/A   Clear
10:35 AM 68.0 °F 39.2 °F 35% 29.93 in 10.0 mi NNE 21.9 mph 27.6 mph N/A   Clear
11:15 AM 69.8 °F 41.0 °F 35% 29.95 in 10.0 mi NNE 13.8 mph - N/A   Clear
11:35 AM 71.6 °F 39.2 °F 31% 29.95 in 10.0 mi NNE 17.3 mph 24.2 mph N/A   Clear
11:55 AM 71.6 °F 39.2 °F 31% 29.95 in 10.0 mi NNE 18.4 mph - N/A   Clear
12:15 PM 71.6 °F 39.2 °F 31% 29.94 in 10.0 mi NE 15.0 mph - N/A   Clear
12:35 PM 73.4 °F 39.2 °F 29% 29.93 in 10.0 mi NNE 15.0 mph 20.7 mph N/A   Clear
12:55 PM 73.4 °F 35.6 °F 25% 29.93 in 10.0 mi NE 15.0 mph 23.0 mph N/A   Clear
1:15 PM 75.2 °F 35.6 °F 24% 29.93 in 10.0 mi North 12.7 mph - N/A   Clear
1:35 PM 75.2 °F 37.4 °F 25% 29.92 in 10.0 mi NNE 16.1 mph - N/A   Clear
1:55 PM 75.2 °F 35.6 °F 24% 29.92 in 10.0 mi NNE 15.0 mph 19.6 mph N/A   Clear
2:15 PM 75.2 °F 35.6 °F 24% 29.91 in 10.0 mi NNE 10.4 mph 17.3 mph N/A   Clear
2:55 PM 77.0 °F 32.0 °F 19% 29.90 in 10.0 mi North 12.7 mph 19.6 mph N/A   Clear
3:15 PM 77.0 °F 32.0 °F 19% 29.91 in 10.0 mi NE 11.5 mph 17.3 mph N/A   Clear
3:35 PM 77.0 °F 32.0 °F 19% 29.91 in 10.0 mi North 10.4 mph 16.1 mph N/A   Clear
3:55 PM 77.0 °F 33.8 °F 21% 29.91 in 10.0 mi NNE 8.1 mph - N/A   Clear
4:15 PM 77.0 °F 33.8 °F 21% 29.90 in 10.0 mi NNE 8.1 mph 20.7 mph N/A   Clear
4:35 PM 77.0 °F 32.0 °F 19% 29.90 in 10.0 mi NNE 5.8 mph - N/A   Clear
4:55 PM 77.0 °F 33.8 °F 21% 29.90 in 10.0 mi NNE 6.9 mph - N/A   Clear
5:15 PM 77.0 °F 33.8 °F 21% 29.90 in 10.0 mi NE 4.6 mph - N/A   Clear
5:35 PM 75.2 °F 32.0 °F 21% 29.90 in 10.0 mi North 6.9 mph - N/A   Clear
5:55 PM 75.2 °F 32.0 °F 21% 29.90 in 10.0 mi North 8.1 mph - N/A   Clear
6:15 PM 75.2 °F 33.8 °F 22% 29.91 in 10.0 mi NE 4.6 mph - N/A   Clear
6:35 PM 73.4 °F 33.8 °F 23% 29.92 in 3.0 mi NNE 3.5 mph - N/A   Haze
6:55 PM 71.6 °F 35.6 °F 27% 29.93 in 3.0 mi NNE 5.8 mph - N/A   Haze
7:15 PM 68.0 °F 37.4 °F 33% 29.94 in 4.0 mi NE 3.5 mph - N/A   Haze
7:35 PM 66.2 °F 37.4 °F 35% 29.96 in 9.0 mi NE 5.8 mph - N/A   Clear
7:55 PM 66.2 °F 37.4 °F 35% 29.97 in 10.0 mi Calm Calm - N/A   Clear
8:15 PM 64.4 °F 39.2 °F 40% 29.99 in 10.0 mi NE 5.8 mph - N/A   Clear
8:35 PM 64.4 °F 39.2 °F 40% 30.01 in 9.0 mi NE 3.5 mph - N/A   Clear
8:55 PM 62.6 °F 39.2 °F 42% 30.02 in 10.0 mi NE 5.8 mph - N/A   Clear
9:15 PM 62.6 °F 41.0 °F 45% 30.03 in 10.0 mi NE 6.9 mph - N/A   Clear
9:35 PM 62.6 °F 41.0 °F 45% 30.04 in 10.0 mi NE 4.6 mph - N/A   Clear
9:55 PM 59.0 °F 41.0 °F 51% 30.04 in 10.0 mi NE 5.8 mph - N/A   Clear
10:15 PM 59.0 °F 41.0 °F 51% 30.05 in 10.0 mi NE 5.8 mph - N/A   Clear
10:35 PM 59.0 °F 41.0 °F 51% 30.06 in 10.0 mi NE 4.6 mph - N/A   Clear
10:55 PM 59.0 °F 41.0 °F 51% 30.07 in 9.0 mi NE 4.6 mph - N/A   Clear
11:15 PM 57.2 °F 41.0 °F 55% 30.07 in 10.0 mi NE 5.8 mph - N/A   Clear
11:35 PM 57.2 °F 41.0 °F 55% 30.08 in 10.0 mi NNE 5.8 mph - N/A   Clear
11:55 PM 57.2 °F 41.0 °F 55% 30.08 in 9.0 mi NNE 5.8 mph - N/A   Clear